GW6787 Weather Reports


time (UTC)temp
C
wind
direction
speed
KPH
gust
KPH
rain 1hr
cm
rain 24hr
cm
rain mn
cm
humidity
%
barometer
mb
20260508024007 10 118 0.0 3.2 0.00 0.00 0.00 87 1017.4
20260508023504 10 119 0.0 3.2 0.00 0.00 0.00 87 1017.4
20260508023018 10 123 0.0 3.2 0.00 0.00 0.00 87 1017.4
20260508022507 10 123 0.0 3.2 0.00 0.00 0.00 87 1017.4
20260508022006 10 123 0.0 3.2 0.00 0.00 0.00 87 1017.4
20260508021509 10 123 0.0 3.2 0.00 0.00 0.00 87 1017.4
20260508021003 10 120 0.0 3.2 0.00 0.00 0.00 87 1017.4
20260508020508 10 121 0.0 3.2 0.00 0.00 0.00 87 1017.4
20260508020013 10 121 0.0 3.2 0.00 0.00 0.00 87 1017.4
20260508015507 10 113 0.0 3.2 0.00 0.00 0.00 87 1017.4
20260508015007 10 117 0.0 3.2 0.00 0.00 0.00 87 1017.4
20260508014521 10 116 0.0 3.2 0.00 0.00 0.00 87 1017.3
20260508014008 10 116 0.0 3.2 0.00 0.00 0.00 86 1017.3
20260508013505 10 116 0.0 3.2 0.00 0.00 0.00 86 1017.4
20260508013023 10 117 0.0 3.2 0.00 0.00 0.00 86 1017.4
20260508012506 10 115 1.6 3.2 0.00 0.00 0.00 86 1017.4
20260508012008 10 121 0.0 3.2 0.00 0.00 0.00 86 1017.4
20260508011534 10 121 0.0 3.2 0.00 0.00 0.00 86 1017.5
20260508011007 10 117 0.0 3.2 0.00 0.00 0.00 86 1017.5
20260508010505 10 119 0.0 3.2 0.00 0.00 0.00 86 1017.5
20260508010023 10 119 0.0 3.2 0.00 0.00 0.00 86 1017.5
20260508005504 10 119 0.0 3.2 0.00 0.00 0.00 86 1017.5
20260508005005 10 119 0.0 3.2 0.00 0.00 0.00 86 1017.5
20260508004534 10 119 1.6 4.8 0.00 0.00 0.00 86 1017.6
20260508004006 10 122 0.0 4.8 0.00 0.00 0.00 86 1017.6
20260508003506 10 116 1.6 3.2 0.00 0.00 0.00 86 1017.5
20260508003015 10 126 0.0 3.2 0.00 0.00 0.00 86 1017.6
20260508002507 10 130 0.0 3.2 0.00 0.00 0.00 86 1017.7
20260508002007 10 132 1.6 6.4 0.00 0.00 0.00 86 1017.6
20260508001515 10 108 1.6 6.4 0.00 0.00 0.00 86 1017.7
20260508001007 10 112 1.6 4.8 0.00 0.00 0.00 86 1017.6
20260508000511 10 120 1.6 3.2 0.00 0.00 0.00 86 1017.8
20260508000029 10 142 0.0 3.2 0.00 0.00 0.00 86 1017.7
20260507235506 10 149 1.6 3.2 0.00 0.00 0.00 85 1017.8
20260507235009 10 134 1.6 3.2 0.00 0.00 0.00 85 1017.9
20260507234522 10 146 1.6 4.8 0.00 0.00 0.00 85 1017.9
20260507234006 10 144 1.6 4.8 0.00 0.00 0.00 85 1018.0
20260507233506 10 139 1.6 3.2 0.00 0.00 0.00 85 1018.0
20260507233025 10 142 0.0 3.2 0.00 0.00 0.00 85 1018.1
20260507232507 10 142 0.0 3.2 0.00 0.00 0.00 85 1018.0
20260507232006 10 155 1.6 3.2 0.00 0.00 0.00 85 1018.0
20260507231522 10 137 1.6 6.4 0.00 0.00 0.00 85 1018.0
20260507231011 10 125 1.6 6.4 0.00 0.00 0.00 84 1018.0
20260507230509 10 109 3.2 4.8 0.00 0.00 0.00 84 1018.0
20260507230019 10 133 1.6 6.4 0.00 0.00 0.00 84 1018.0
20260507225508 10 142 0.0 6.4 0.00 0.00 0.00 84 1018.1
20260507225008 10 147 1.6 3.2 0.00 0.00 0.00 84 1018.1
20260507224523 10 125 0.0 6.4 0.00 0.00 0.00 84 1018.1
20260507224007 10 130 0.0 6.4 0.00 0.00 0.00 84 1018.1
20260507223503 10 105 1.6 6.4 0.00 0.00 0.00 84 1018.1
20260507223017 10 142 1.6 4.8 0.00 0.00 0.00 84 1018.1
20260507222511 10 155 0.0 4.8 0.00 0.00 0.00 84 1018.1
20260507222006 10 198 0.0 4.8 0.00 0.00 0.00 83 1018.1
20260507221524 10 159 1.6 4.8 0.00 0.00 0.00 83 1018.0
20260507221004 10 128 0.0 4.8 0.00 0.00 0.00 83 1018.1
20260507220505 10 153 0.0 6.4 0.00 0.00 0.00 83 1018.1
20260507220006 10 152 1.6 6.4 0.00 0.00 0.00 83 1018.1
20260507215504 10 142 1.6 4.8 0.00 0.00 0.00 83 1018.2
20260507215002 10 153 1.6 4.8 0.00 0.00 0.00 83 1018.1
20260507214511 10 138 1.6 9.7 0.00 0.00 0.00 83 1018.2
20260507214007 10 126 1.6 11.3 0.00 0.00 0.00 83 1018.2
20260507213502 10 145 3.2 11.3 0.00 0.00 0.00 83 1018.1
20260507213003 10 122 1.6 11.3 0.00 0.00 0.00 83 1018.1
20260507212502 9 141 3.2 11.3 0.00 0.00 0.00 83 1018.1
20260507212002 9 119 3.2 9.7 0.00 0.00 0.00 84 1018.2
20260507211504 9 110 3.2 6.4 0.00 0.00 0.00 84 1018.1
20260507211004 9 120 3.2 9.7 0.00 0.00 0.00 84 1018.2
20260507210503 9 134 3.2 9.7 0.00 0.00 0.00 84 1018.1
20260507210006 9 111 1.6 6.4 0.00 0.00 0.00 84 1018.1
20260507205504 9 133 0.0 8.0 0.00 0.00 0.00 84 1018.1
20260507205004 9 150 1.6 8.0 0.00 0.00 0.00 84 1018.1
20260507204507 9 136 1.6 6.4 0.00 0.00 0.00 84 1018.1
20260507204004 9 143 0.0 6.4 0.00 0.00 0.00 84 1018.1
20260507203506 9 130 1.6 6.4 0.00 0.00 0.00 83 1018.1
20260507203013 9 162 1.6 4.8 0.00 0.00 0.00 83 1018.0
20260507202502 9 130 0.0 6.4 0.00 0.00 0.00 83 1017.9
20260507202004 9 131 1.6 6.4 0.00 0.00 0.00 83 1017.8
20260507201502 9 121 1.6 6.4 0.00 0.00 0.00 83 1017.8
20260507201003 9 132 1.6 6.4 0.00 0.00 0.00 83 1017.8
20260507200503 9 159 1.6 3.2 0.00 0.00 0.00 83 1017.7
20260507200003 9 160 1.6 4.8 0.00 0.00 0.00 83 1017.7
20260507195503 9 124 1.6 4.8 0.00 0.00 0.00 82 1017.7
20260507195002 9 115 3.2 4.8 0.00 0.00 0.00 82 1017.6
20260507194504 9 117 0.0 4.8 0.00 0.00 0.00 82 1017.7
20260507194003 9 98 1.6 6.4 0.00 0.00 0.00 82 1017.6
20260507193503 10 132 1.6 9.7 0.00 0.00 0.00 82 1017.5
20260507193003 10 114 1.6 9.7 0.00 0.00 0.00 81 1017.4
20260507192505 10 116 3.2 9.7 0.00 0.00 0.00 81 1017.4
20260507192003 10 131 1.6 8.0 0.00 0.00 0.00 81 1017.5
20260507191514 10 98 1.6 9.7 0.00 0.00 0.00 80 1017.4
20260507191003 10 113 3.2 9.7 0.00 0.00 0.00 80 1017.5
20260507190502 10 132 3.2 9.7 0.00 0.00 0.00 80 1017.4
20260507190005 10 122 3.2 11.3 0.00 0.00 0.00 79 1017.5
20260507185502 10 84 4.8 11.3 0.00 0.00 0.00 79 1017.5
20260507185003 10 87 3.2 9.7 0.00 0.00 0.00 79 1017.5
20260507184503 10 125 3.2 11.3 0.00 0.00 0.00 79 1017.4
20260507184004 10 122 4.8 11.3 0.00 0.00 0.00 78 1017.4
20260507183502 10 135 3.2 11.3 0.00 0.00 0.00 78 1017.4
20260507183009 10 117 1.6 11.3 0.00 0.00 0.00 78 1017.4
20260507182505 10 157 3.2 11.3 0.00 0.00 0.00 78 1017.4
20260507182004 10 166 4.8 14.5 0.00 0.00 0.00 77 1017.3
20260507181505 10 133 1.6 14.5 0.00 0.00 0.00 76 1017.4
20260507181004 10 128 3.2 12.9 0.00 0.00 0.00 76 1017.4
20260507180504 10 126 4.8 12.9 0.00 0.00 0.00 75 1017.3
20260507180004 11 128 3.2 12.9 0.00 0.00 0.00 74 1017.4
20260507175506 11 141 3.2 12.9 0.00 0.00 0.00 73 1017.3
20260507175003 11 142 4.8 14.5 0.00 0.00 0.00 72 1017.3
20260507174513 11 68 3.2 14.5 0.00 0.00 0.00 71 1017.3
20260507174002 12 105 6.4 16.1 0.00 0.00 0.00 71 1017.3
20260507173507 12 110 6.4 12.9 0.00 0.00 0.00 70 1017.2
20260507173011 12 126 6.4 12.9 0.00 0.00 0.00 69 1017.3
20260507172503 12 117 3.2 11.3 0.00 0.00 0.00 69 1017.3
20260507172002 12 107 4.8 11.3 0.00 0.00 0.00 69 1017.3
20260507171508 12 131 6.4 11.3 0.00 0.00 0.00 69 1017.3
20260507171003 13 143 4.8 11.3 0.00 0.00 0.00 68 1017.2
20260507170503 13 115 4.8 14.5 0.00 0.00 0.00 67 1017.2
20260507170010 13 111 4.8 14.5 0.00 0.00 0.00 67 1017.2
20260507165510 13 81 4.8 14.5 0.00 0.00 0.00 66 1017.3
20260507165002 13 151 4.8 12.9 0.00 0.00 0.00 66 1017.3
20260507164508 13 111 6.4 12.9 0.00 0.00 0.00 66 1017.4
20260507164004 13 82 4.8 14.5 0.00 0.00 0.00 66 1017.4
20260507163505 13 117 6.4 14.5 0.00 0.00 0.00 64 1017.4
20260507163006 13 191 4.8 12.9 0.00 0.00 0.00 65 1017.4
20260507162503 13 109 4.8 12.9 0.00 0.00 0.00 64 1017.4
20260507162001 13 143 3.2 14.5 0.00 0.00 0.00 64 1017.3
20260507161506 13 150 4.8 14.5 0.00 0.00 0.00 64 1017.4
20260507161005 13 149 6.4 14.5 0.00 0.00 0.00 63 1017.4
20260507160503 13 118 6.4 14.5 0.00 0.00 0.00 64 1017.5
20260507160015 13 126 4.8 14.5 0.00 0.00 0.00 64 1017.4
20260507155502 13 79 6.4 14.5 0.00 0.00 0.00 63 1017.4
20260507155002 13 108 4.8 14.5 0.00 0.00 0.00 63 1017.4
20260507154520 13 107 4.8 14.5 0.00 0.00 0.00 62 1017.4
20260507154010 14 60 4.8 14.5 0.00 0.00 0.00 62 1017.5
20260507153505 14 110 3.2 14.5 0.00 0.00 0.00 63 1017.4
20260507153019 14 140 6.4 14.5 0.00 0.00 0.00 62 1017.5
20260507152509 13 146 4.8 12.9 0.00 0.00 0.00 64 1017.4
20260507152001 13 102 6.4 16.1 0.00 0.00 0.00 63 1017.5
20260507151509 13 103 4.8 19.3 0.00 0.00 0.00 62 1017.5
20260507151003 14 131 4.8 19.3 0.00 0.00 0.00 62 1017.4
20260507150503 14 35 4.8 14.5 0.00 0.00 0.00 62 1017.5
20260507150005 14 115 4.8 12.9 0.00 0.00 0.00 62 1017.5
20260507145507 14 97 3.2 16.1 0.00 0.00 0.00 64 1017.5
20260507145011 13 101 4.8 16.1 0.00 0.00 0.00 63 1017.6
20260507144506 14 107 8.0 16.1 0.00 0.00 0.00 63 1017.5
20260507144002 14 121 6.4 16.1 0.00 0.00 0.00 63 1017.4
20260507143504 14 135 6.4 14.5 0.00 0.00 0.00 63 1017.5
20260507143020 14 66 4.8 14.5 0.00 0.00 0.00 62 1017.6
20260507142503 14 141 4.8 16.1 0.00 0.00 0.00 62 1017.5
20260507142005 14 67 4.8 16.1 0.00 0.00 0.00 63 1017.6
20260507141522 14 115 4.8 17.7 0.00 0.00 0.00 63 1017.6
20260507141003 14 132 8.0 16.1 0.00 0.00 0.00 61 1017.7
20260507140503 14 145 4.8 14.5 0.00 0.00 0.00 63 1017.8
20260507140017 14 72 4.8 14.5 0.00 0.00 0.00 62 1017.8
20260507135502 13 126 6.4 16.1 0.00 0.00 0.00 62 1017.9
20260507135005 14 107 8.0 16.1 0.00 0.00 0.00 61 1017.9
20260507134516 14 76 4.8 12.9 0.00 0.00 0.00 61 1017.9
20260507134005 14 137 6.4 12.9 0.00 0.00 0.00 61 1017.8
20260507133506 14 171 6.4 14.5 0.00 0.00 0.00 62 1017.8
20260507133010 14 174 6.4 14.5 0.00 0.00 0.00 61 1017.8
20260507132507 14 127 3.2 14.5 0.00 0.00 0.00 61 1017.8
20260507132009 14 173 6.4 12.9 0.00 0.00 0.00 58 1017.9
20260507131506 14 51 4.8 12.9 0.00 0.00 0.00 63 1017.8
20260507131005 14 76 4.8 14.5 0.00 0.00 0.00 61 1017.8
20260507130507 14 142 4.8 14.5 0.00 0.00 0.00 60 1017.9
20260507130026 14 148 3.2 12.9 0.00 0.00 0.00 60 1017.8
20260507125506 14 139 3.2 12.9 0.00 0.00 0.00 60 1017.8
20260507125003 14 126 6.4 14.5 0.00 0.00 0.00 61 1017.8
20260507124509 13 98 4.8 14.5 0.00 0.00 0.00 63 1017.9
20260507124002 13 123 4.8 12.9 0.00 0.00 0.00 63 1017.9
20260507123505 13 105 6.4 11.3 0.00 0.00 0.00 61 1017.9
20260507123016 13 85 3.2 14.5 0.00 0.00 0.00 62 1017.9
20260507122512 13 94 3.2 14.5 0.00 0.00 0.00 60 1017.8
20260507122003 14 30 3.2 11.3 0.00 0.00 0.00 62 1017.8
20260507121518 13 161 3.2 14.5 0.00 0.00 0.00 61 1017.8
20260507121007 14 141 3.2 14.5 0.00 0.00 0.00 62 1017.9
20260507120510 13 125 4.8 12.9 0.00 0.00 0.00 61 1017.9
20260507120026 13 51 4.8 16.1 0.00 0.00 0.00 60 1017.9
20260507115506 13 98 6.4 16.1 0.00 0.00 0.00 61 1018.0
20260507115012 13 121 6.4 14.5 0.00 0.00 0.00 60 1017.9
20260507114510 14 108 6.4 14.5 0.00 0.00 0.00 60 1017.9
20260507114003 14 138 4.8 12.9 0.00 0.00 0.00 59 1017.9
20260507113506 14 86 4.8 14.5 0.00 0.00 0.00 59 1017.9
20260507113023 14 146 6.4 14.5 0.00 0.00 0.00 59 1018.0
20260507112509 14 123 4.8 14.5 0.00 0.00 0.00 61 1018.0
20260507112008 14 123 4.8 12.9 0.00 0.00 0.00 61 1018.1
20260507111523 14 169 3.2 12.9 0.00 0.00 0.00 60 1018.1
20260507111003 14 113 4.8 12.9 0.00 0.00 0.00 60 1018.1
20260507110507 14 97 4.8 16.1 0.00 0.00 0.00 61 1018.1
20260507110023 13 101 4.8 16.1 0.00 0.00 0.00 60 1018.1
20260507105511 13 107 3.2 12.9 0.00 0.00 0.00 62 1018.1
20260507105003 13 50 4.8 12.9 0.00 0.00 0.00 62 1018.1
20260507104520 13 119 6.4 12.9 0.00 0.00 0.00 60 1018.0
20260507104010 13 88 3.2 9.7 0.00 0.00 0.00 62 1018.0
20260507103503 13 73 3.2 12.9 0.00 0.00 0.00 61 1018.0
20260507103008 13 126 3.2 16.1 0.00 0.00 0.00 62 1018.1
20260507102503 13 101 6.4 16.1 0.00 0.00 0.00 62 1018.0
20260507102007 13 140 4.8 12.9 0.00 0.00 0.00 61 1018.0
20260507101521 13 140 4.8 12.9 0.00 0.00 0.00 60 1018.0
20260507101011 13 103 3.2 11.3 0.00 0.00 0.00 61 1018.0
20260507100507 13 107 4.8 11.3 0.00 0.00 0.00 62 1018.0
20260507100032 13 135 3.2 11.3 0.00 0.00 0.00 63 1017.9
20260507095507 13 121 3.2 11.3 0.00 0.00 0.00 63 1018.0
20260507095007 13 97 3.2 14.5 0.00 0.00 0.00 64 1018.0
20260507094523 13 115 4.8 11.3 0.00 0.00 0.00 62 1017.9
20260507094003 13 85 3.2 11.3 0.00 0.00 0.00 62 1017.9
20260507093510 13 174 3.2 11.3 0.00 0.00 0.00 63 1017.9
20260507093031 13 128 3.2 9.7 0.00 0.00 0.00 61 1017.8
20260507092512 13 62 3.2 9.7 0.00 0.00 0.00 60 1017.9
20260507092007 13 115 4.8 9.7 0.00 0.00 0.00 62 1017.7
20260507091511 13 142 1.6 12.9 0.00 0.00 0.00 61 1017.8
20260507091003 13 98 3.2 14.5 0.00 0.00 0.00 60 1017.9
20260507090507 13 130 4.8 14.5 0.00 0.00 0.00 61 1017.7
20260507090020 13 126 3.2 9.7 0.00 0.00 0.00 62 1017.7
20260507085506 13 75 3.2 9.7 0.00 0.00 0.00 63 1017.6
20260507085009 12 37 1.6 9.7 0.00 0.00 0.00 67 1017.6
20260507084538 12 65 3.2 9.7 0.00 0.00 0.00 65 1017.6
20260507084007 11 103 1.6 8.0 0.00 0.00 0.00 66 1017.6
20260507083510 11 112 1.6 8.0 0.00 0.00 0.00 66 1017.6
20260507083022 11 135 1.6 6.4 0.00 0.00 0.00 67 1017.6
20260507082506 11 94 1.6 6.4 0.00 0.00 0.00 67 1017.6
20260507082013 11 128 1.6 6.4 0.00 0.00 0.00 69 1017.6
20260507081529 11 98 3.2 6.4 0.00 0.00 0.00 69 1017.5
20260507081010 11 130 1.6 6.4 0.00 0.00 0.00 68 1017.5
20260507080507 11 119 3.2 6.4 0.00 0.00 0.00 68 1017.4
20260507080016 11 130 3.2 4.8 0.00 0.00 0.00 69 1017.4
20260507075506 11 100 1.6 4.8 0.00 0.00 0.00 69 1017.4
20260507075012 11 116 1.6 4.8 0.00 0.00 0.00 68 1017.3
20260507074522 11 58 1.6 6.4 0.00 0.00 0.00 69 1017.2
20260507074005 11 92 0.0 6.4 0.00 0.00 0.00 68 1017.3
20260507073506 11 44 1.6 6.4 0.00 0.00 0.00 66 1017.2
20260507073026 11 119 3.2 8.0 0.00 0.00 0.00 68 1017.3
20260507072509 11 138 3.2 8.0 0.00 0.00 0.00 69 1017.1
20260507072012 11 101 1.6 6.4 0.00 0.00 0.00 67 1017.1
20260507071520 11 84 1.6 6.4 0.00 0.00 0.00 68 1017.1
20260507071004 11 108 1.6 6.4 0.00 0.00 0.00 69 1017.1
20260507070504 11 92 1.6 9.7 0.00 0.00 0.00 69 1017.1
20260507070019 11 117 1.6 9.7 0.00 0.00 0.00 70 1017.1
20260507065502 11 69 1.6 4.8 0.00 0.00 0.00 71 1017.1
20260507065003 10 138 1.6 6.4 0.00 0.00 0.00 71 1017.1
20260507064513 10 121 1.6 6.4 0.00 0.00 0.00 70 1017.1
20260507064004 10 143 3.2 6.4 0.00 0.00 0.00 73 1017.0
20260507063506 10 107 1.6 4.8 0.00 0.00 0.00 74 1017.0
20260507063004 9 84 1.6 4.8 0.00 0.00 0.00 75 1017.1
20260507062503 9 145 1.6 4.8 0.00 0.00 0.00 75 1017.0
20260507062000 8 68 1.6 4.8 0.00 0.00 0.00 76 1017.0
20260507061508 8 32 0.0 4.8 0.00 0.00 0.00 77 1016.9
20260507061007 8 122 1.6 4.8 0.00 0.00 0.00 78 1016.9
20260507060504 8 36 1.6 4.8 0.00 0.00 0.00 79 1017.0
20260507060004 8 78 1.6 3.2 0.00 0.00 0.00 81 1016.9
20260507055506 7 305 0.0 3.2 0.00 0.00 0.00 82 1016.8
20260507055006 7 321 0.0 3.2 0.00 0.00 0.00 82 1016.8
20260507054505 7 321 0.0 3.2 0.00 0.00 0.00 82 1016.7
20260507054002 7 320 0.0 3.2 0.00 0.00 0.00 82 1016.6
20260507053507 7 340 0.0 3.2 0.00 0.00 0.00 82 1016.7
20260507053020 7 38 0.0 3.2 0.00 0.00 0.00 82 1016.6
20260507052504 7 44 0.0 3.2 0.00 0.00 0.00 82 1016.6
20260507052006 7 53 0.0 3.2 0.00 0.00 0.00 82 1016.6
20260507051504 7 14 0.0 3.2 0.00 0.00 0.00 82 1016.6
20260507051006 7 15 0.0 3.2 0.00 0.00 0.00 81 1016.5
20260507050503 7 15 0.0 3.2 0.00 0.00 0.00 81 1016.5
20260507050027 7 15 0.0 3.2 0.00 0.00 0.00 80 1016.5
20260507045506 7 21 0.0 3.2 0.00 0.00 0.00 80 1016.5
20260507045004 7 34 0.0 3.2 0.00 0.00 0.00 79 1016.4
20260507044519 7 69 0.0 3.2 0.00 0.00 0.00 79 1016.3
20260507044004 7 71 0.0 3.2 0.00 0.00 0.00 79 1016.3
20260507043506 7 26 0.0 3.2 0.00 0.00 0.00 79 1016.3
20260507043006 7 26 0.0 3.2 0.00 0.00 0.00 78 1016.3
20260507042508 7 26 0.0 3.2 0.00 0.00 0.00 78 1016.1
20260507042010 7 26 0.0 3.2 0.00 0.00 0.00 78 1016.1
20260507041507 7 75 0.0 4.8 0.00 0.00 0.00 78 1016.1
20260507041003 7 55 0.0 4.8 0.00 0.00 0.00 78 1016.1
20260507040504 7 50 1.6 4.8 0.00 0.00 0.00 78 1016.1
20260507040004 7 63 1.6 4.8 0.00 0.00 0.00 78 1016.0
20260507035504 7 58 0.0 4.8 0.00 0.00 0.00 78 1016.0
20260507035004 7 76 0.0 3.2 0.00 0.00 0.00 78 1016.0
20260507034505 7 63 0.0 4.8 0.00 0.00 0.00 78 1016.0
20260507034008 7 63 1.6 4.8 0.00 0.00 0.00 78 1015.9
20260507033504 7 52 1.6 3.2 0.00 0.00 0.00 78 1016.0
20260507033026 7 57 0.0 3.2 0.00 0.00 0.00 78 1015.9
20260507032503 7 57 0.0 3.2 0.00 0.00 0.00 77 1016.0
20260507032005 7 41 0.0 3.2 0.00 0.00 0.00 76 1015.9
20260507031506 7 46 0.0 3.2 0.00 0.00 0.00 76 1016.0
20260507031003 7 46 0.0 4.8 0.00 0.00 0.00 76 1016.0
20260507030503 7 49 0.0 4.8 0.00 0.00 0.00 76 1016.0
20260507030007 8 28 0.0 6.4 0.00 0.00 0.00 76 1016.0
20260507025502 8 36 1.6 6.4 0.00 0.00 0.00 76 1016.0
20260507025008 8 36 0.0 4.8 0.00 0.00 0.00 75 1016.0
20260507024515 8 27 1.6 6.4 0.00 0.00 0.00 75 1016.1